Flag for U.S.A. Weather past 2 weeks in Louisville, Kentucky, U.S.A.

Now
89 °F

Scattered clouds.


Feels Like: 92 °F
Forecast: 71 / 85 °F
Wind: 12 mph from West

Location: Standiford Field

Current Time: Aug 3, 2015 at 8:12:27 PM

Latest Report: Aug 3, 2015 at 7:56 PM


Visibility: 8 mi

Pressure: 29.83 "Hg

Humidity: 48%

Dew point: 67 °F

Location of LouisvilleLocation

Historic Weather in Louisville — Graph

°F

Louisville temperature yesterday

Maximum temperature yesterday: 90 °F (at 4:56 PM)
Minimum temperature yesterday: 67 °F (at 7:56 AM)
Average temperature yesterday: 79 °F

Past Weeks' High & Low Weather Summary

 TemperatureHumidityPressure
High95 °F (Jul 29, 4:56 PM)90% (Jul 21, 4:56 AM)30.09 "Hg (Jul 21, 4:56 AM)
Low67 °F (Aug 2, 7:56 AM)29% (Aug 1, 3:56 PM)29.74 "Hg (Jul 21, 4:56 AM)
Average81 °F62%29.94 "Hg
* Reported Jul 19 6:56 PM — Aug 3 6:56 PM, Louisville, Weather by CustomWeather, © 2015

Note: Actual official high and low records may vary slightly from our data, if they occured in-between our weather recording intervals... More about our weather records

Advertising

Louisville weather history for previous 24 hours

 ConditionsComfort  
Time TempWeatherWind HumidityBarometerVisibility
6:56 PM
Mon, Aug 3
91 °FScattered clouds.18 mph45%29.83 "Hg8 mi
5:56 PM92 °FPassing clouds.15 mph44%29.82 "Hg8 mi
4:56 PM93 °FPassing clouds.17 mph46%29.83 "Hg8 mi
3:56 PM92 °FPassing clouds.17 mph49%29.83 "Hg8 mi
2:56 PM90 °FPassing clouds.16 mph50%29.84 "Hg8 mi
1:56 PM87 °FPassing clouds.6 mph55%29.85 "Hg9 mi
12:56 PM84 °FPassing clouds.9 mph55%29.86 "Hg9 mi
11:56 AM82 °FPassing clouds.12 mph55%29.88 "Hg9 mi
10:56 AM79 °FPassing clouds.12 mph58%29.89 "Hg10 mi
9:56 AM74 °FPassing clouds.14 mph64%29.89 "Hg10 mi
8:56 AM72 °FMostly cloudy.18 mph66%29.92 "Hg10 mi
7:56 AM74 °FScattered clouds.6 mph69%29.87 "Hg8 mi
6:56 AM74 °FPassing clouds.5 mph64%29.85 "Hg9 mi
5:56 AM73 °FPassing clouds.5 mph69%29.85 "Hg10 mi
4:56 AM73 °FPassing clouds.5 mph71%29.85 "Hg10 mi
3:56 AM72 °FPassing clouds.6 mph76%29.85 "Hg10 mi
2:56 AM74 °FClear.3 mph67%29.86 "Hg10 mi
1:56 AM75 °FClear.5 mph64%29.86 "Hg10 mi
12:56 AM77 °FClear.7 mph60%29.87 "Hg10 mi
11:56 PM
Sun, Aug 2
79 °FClear.9 mph56%29.87 "Hg10 mi
10:56 PM79 °FClear.7 mph56%29.88 "Hg10 mi
9:56 PM81 °FClear.9 mph53%29.87 "Hg10 mi
8:56 PM84 °FPassing clouds.12 mph46%29.87 "Hg10 mi
Weather by CustomWeather, © 2015

See weather overviewHow to use our weather pages